Location: Bęczków
(50.8761°N, 20.8028°E)
Time: 16:37:27
(UTC+02:00)

Envisat - Pass Details

Date: 20 March 2019
Orbit: 764 x 766 km, 98.2° (Epoch: 24 April)

Event Time Altitude Azimuth Distance (km) Brightness Sun altitude
Rises 19:13:18 0° 202° (SSW) 3,223 6.3 -13.9°
Reaches altitude 10° 19:16:02 10° 216° (SW) 2,302 5.7 -14.3°
Maximum altitude 19:20:04 23° 269° (W) 1,573 5.5 -14.9°
Drops below altitude 10° 19:24:07 10° 322° (NW) 2,316 6.4 -15.5°
Sets 19:26:54 0° 336° (NNW) 3,247 6.9 -15.9°
